User: anonymous   Login
Location: Brabourne
(51.1333°N, 1.0000°E)
Time: 14:11:11
(UTC+00:00)
Language:

SJ 16-02 DEB - Orbit

View from above orbital plane
View from above orbital plane
View from above satellite
View from above satellite

Ground track
Ground track

The orbit data is extracted from the following two-line orbital elements,

1 43429U 16043D   22019.61503804  .00002408  00000-0  60093-3 0  9992
2 43429  74.9732 349.0003 0240048 335.2067  23.7703 14.36094622289243
Epoch (UTC): 19 January 2022 14:45:39
Eccentricity: 0.0240048
inclination: 74.9732°
perigee height: 600 km
apogee height: 943 km
right ascension of ascending node: 349.0003°
argument of perigee: 335.2067°
revolutions per day: 14.36094622
mean anomaly at epoch: 23.7703°
orbit number at epoch: 28924

The dashed part of the orbit path shows where the satellite is in the earth's shadow,  

DLR